Location: Yucca Valley
(34.1140°N, 116.4310°W)
Time: 15:41:25
(UTC-07:00)

Daily predictions for brighter satellites

Satellite Brightness Start Highest point End
(mag) Time Altitude Azimuth Time Altitude Azimuth Time Altitude Azimuth
H-2A R/B 3.3 20:10:48 10° SSE 20:14:32 43° ENE 20:18:18 10° N
Cosmos 1844 Rocket 3.4 20:13:57 10° NNW 20:19:29 56° WSW 20:24:57 10° S
Cosmos 1975 3.5 20:17:30 10° NNW 20:21:27 59° W 20:25:22 10° S
Cosmos 1844 4.0 20:16:06 10° NNW 20:21:52 75° WSW 20:27:38 10° SSE
ERS-1 Rocket 3.7 20:17:56 10° SE 20:22:26 35° ENE 20:26:57 10° N
OAO 3 Copernicus 4.4 20:18:23 10° W 20:23:27 80° N 20:28:31 10° E
Cosmos 1606 Rocket 4.0 20:20:58 10° N 20:25:13 44° E 20:29:25 10° SSE
FENGYUN 3A 3.7 20:20:51 10° SSE 20:26:09 68° ENE 20:31:30 10° N
Hubble Space Telescope 3.0 20:25:47 10° SW 20:28:05 14° SSW 20:30:23 10° SSE
H-2A R/B 3.0 20:25:42 10° SE 20:29:23 30° ENE 20:33:08 10° N
ATLAS CENTAUR R/B 3.3 20:31:45 10° SW 20:36:25 42° WNW 20:41:13 10° NNE
Resurs 01 Rocket 4.3 20:38:25 10° SW 20:41:22 17° W 20:44:19 10° NW
Cosmos 2237 Rocket 4.0 20:40:15 10° SW 20:45:22 36° WNW 20:50:32 10° N
GEOS 3 Rocket 3.8 20:44:04 10° SSE 20:49:16 77° WSW 20:54:32 10° NW
PSLV R/B 3.3 20:47:23 10° SW 20:50:53 69° SSE 20:54:25 10° ENE
USA 186 2.8 20:48:04 10° S 20:50:55 39° W 20:53:36 10° NNW
Atlas Centaur 2 3.3 20:45:08 10° SW 20:52:09 45° SSE 21:00:06 10° E
Aureole 2 Rocket 2.7 20:49:14 10° S 20:53:15 58° ESE 20:56:57 10° NNE
Cosmos 1025 Rocket 4.1 20:49:50 10° SSW 20:54:04 48° W 20:58:20 10° N
ISS -1.0 20:52:11 10° S 20:52:25 11° S 20:52:25 11° S
Cosmos 2228 3.6 20:51:38 10° N 20:55:47 39° E 20:58:26 20° SE
CZ-4 DEB 4.2 20:52:48 10° SSW 20:55:49 37° W 20:58:51 10° NNW
Cosmos 2278 Rocket 2.8 20:51:14 10° NNW 20:56:46 55° WSW 21:02:16 10° S
Cosmos 1939 Rocket 3.4 20:54:30 18° SE 20:57:15 45° ENE 21:01:14 10° N
Cosmos 494 Rocket 4.0 20:52:26 10° SSW 20:57:33 82° WNW 21:02:40 10° NNE
Cosmos 1892 Rocket 4.0 20:54:10 10° SSW 20:58:33 66° W 21:03:00 10° N
Meteor 1-15 Rocket 4.4 20:55:13 10° N 21:00:40 52° E 21:04:44 18° SSE
COSMOS 2455 3.4 20:58:03 10° S 21:03:21 34° ESE 21:08:42 10° NE
Milstar 3 Cent rocket 3.2 20:58:10 10° W 21:05:22 38° SSW 21:08:18 21° SE
Cosmos 1666 2.9 21:04:13 10° N 21:08:02 51° E 21:09:51 27° SE
CZ-4 SHROUD 4.0 21:07:20 30° ESE 21:08:09 36° ENE 21:11:05 10° N
SPOT 5 3.2 21:06:10 23° SE 21:08:25 40° ENE 21:12:30 10° N
Lacrosse 5 rocket 4.3 21:07:30 10° W 21:10:14 18° NW 21:13:03 10° N
Cosmos 2369 Rocket 4.3 21:08:40 10° NNE 21:10:30 11° NE 21:12:20 10° ENE
OTV 4 2.6 21:09:00 10° WSW 21:10:55 16° SSW 21:11:32 15° SSW
SL-16 R/B 3.2 21:06:55 10° SW 21:12:22 50° WNW 21:17:52 10° N
Nimbus 7 Rocket 4.4 21:11:31 10° NNE 21:17:31 89° WNW 21:23:24 10° SSW
Gbstr 26 Del rocket 4.5 21:10:24 10° NW 21:17:55 87° SW 21:23:15 24° SE
Cosmos 1743 4.2 21:16:10 10° NNW 21:19:41 35° W 21:23:10 10° SSW
Cosmos 1331 Rocket 4.3 21:18:44 10° NNW 21:23:54 65° WSW 21:27:27 20° S
Tsikada Rocket 4.0 21:18:41 13° S 21:24:25 69° E 21:30:46 10° NNE
BREEZE M DEB (TANK) 4.0 21:27:16 10° NNW 21:28:24 13° N 21:29:20 10° NE
Cosmos 1513 Rocket 4.4 21:22:23 10° N 21:28:42 87° E 21:33:01 21° S
GRACE-1 3.8 21:26:38 10° N 21:29:24 71° ENE 21:29:24 71° ENE
ALOS 4.5 21:25:53 10° SSW 21:29:30 22° W 21:33:08 10° NW
GRACE-2 3.8 21:27:05 10° N 21:29:50 70° ENE 21:29:50 70° ENE
SeaSat 1 2.4 21:29:57 33° SE 21:32:08 72° ENE 21:37:04 10° NNW
MetOp-B 4.3 21:30:22 32° SE 21:32:44 59° ENE 21:37:59 10° N
Cosmos 1302 Rocket 3.9 21:28:03 10° NNW 21:33:19 86° ENE 21:35:46 33° SSE
Cosmos 1515 4.4 21:33:52 37° E 21:33:52 37° E 21:37:16 10° NNE
Terra 3.9 21:35:13 13° ENE 21:35:41 13° ENE 21:37:53 10° NE
Cosmos 2058 Rocket 4.4 21:34:24 10° NNW 21:38:25 36° W 21:41:48 13° SSW
Cosmos 2285 Rocket 4.3 21:32:33 10° NNW 21:38:48 64° WSW 21:43:00 22° S
CZ-4B R/B 3.4 21:35:27 10° NNE 21:40:33 76° ESE 21:43:33 26° S
Cosmos 1603 3.8 21:35:31 10° SSW 21:41:08 77° WNW 21:46:46 10° NNE
Cosmos 1602 Rocket 4.0 21:38:30 16° SSW 21:41:57 62° W 21:46:23 10° N
PSLV R/B 3.4 21:41:55 59° WSW 21:42:07 61° W 21:45:11 10° NNW
UNK 4.3 21:40:28 10° N 21:45:54 78° WNW 21:51:19 12° SSW
APEX 3.9 21:42:06 10° NNW 21:46:24 75° WSW 21:48:20 39° S
Cosmos 1461 2.9 21:42:59 10° NNW 21:47:11 60° ENE 21:47:38 56° E
Cosmos 1825 Rocket 4.0 21:47:31 42° E 21:47:31 42° E 21:51:35 10° NNE
Cosmos 1238 4.4 21:48:23 71° NNE 21:48:23 71° NNE 21:51:08 10° N
Timation 1 Rocket 4.3 21:44:06 10° NNW 21:50:09 87° ENE 21:52:25 41° SSE
Cosmos 1812 Rocket 3.4 21:51:58 10° N 21:56:22 88° W 21:57:06 62° S
YAOGAN 6 2.6 21:59:25 80° N 21:59:25 80° N 22:02:59 10° N
Centaur D AC-28 3.4 21:56:56 10° WSW 21:58:42 18° SW 21:58:42 18° SW
USA 245 4.3 21:58:00 42° SSE 22:00:13 80° ENE 22:05:50 10° N
Envisat 3.9 22:00:03 25° SSW 22:02:35 43° W 22:07:25 10° NNW
H-2A R/B 4.4 22:02:37 10° SW 22:05:24 18° W 22:08:20 10° NW
Cosmos 1943 3.1 22:05:16 51° SSE 22:06:37 69° ESE 22:12:16 10° NNE
Cosmos 407 Rocket 4.0 22:07:33 42° E 22:07:33 42° E 22:11:50 10° NNE
OAO 3 Copernicus 4.1 22:03:01 10° W 22:08:02 71° SSW 22:08:18 69° S
ATLAS 3B R/B 2.9 22:03:52 25° S 22:08:33 62° ESE 22:16:03 10° NE
Abrixas rocket 3.4 22:07:09 10° NW 22:09:36 44° NW 22:09:36 44° NW
Cosmos 1634 Rocket 4.0 22:05:15 10° N 22:11:23 65° E 22:12:36 53° SE
USA 81 3.9 22:13:12 10° N 22:18:30 85° E 22:19:05 71° SSE
USA 234 3.2 22:17:55 50° SE 22:19:50 87° NE 22:26:26 10° NW
Cosmos 1943 Rocket 4.0 22:19:30 10° NNE 22:23:11 18° ENE 22:23:46 17° ENE
CZ-4C R/B 3.8 22:27:06 64° N 22:27:06 64° N 22:30:40 10° N
Cosmos 489 Rocket 4.4 22:27:13 63° SSE 22:28:09 73° ESE 22:34:30 10° NNE
Cosmos 1953 Rocket 3.9 22:32:44 63° NNW 22:32:44 63° NNW 22:36:32 10° N
Cosmos 2279 Rocket 4.0 22:30:54 10° N 22:37:03 59° E 22:37:18 59° E
H-2A R/B 2.1 22:40:36 62° NE 22:40:36 62° NE 22:45:01 10° N
USA 238 DEB 4.5 22:42:39 36° E 22:42:39 36° E 22:47:34 10° NE
Atlas Centaur 2 3.0 22:33:42 10° WSW 22:41:45 67° S 22:43:36 54° ESE
Cosmos 1992 Rocket 4.1 22:41:08 10° NNW 22:46:04 66° W 22:46:04 66° W
COSMOS 2455 4.4 22:43:54 10° WSW 22:49:12 32° WNW 22:54:35 10° N
Cosmos 1953 4.5 22:47:50 10° NNE 22:49:20 20° NNE 22:49:20 20° NNE
Spot 4 4.4 22:53:33 51° NNE 22:53:33 51° NNE 22:57:14 10° N
ARGOS 3.9 22:52:25 40° WSW 22:52:54 41° W 22:58:01 10° NNW
Cosmos 2180 Rocket 4.5 22:46:43 10° N 22:52:55 67° E 22:52:55 67° E
Cosmos 2369 Rocket 2.2 22:49:36 10° NNW 22:54:55 79° NNW 22:54:55 79° NNW
Cosmos-2242 4.5 22:56:17 10° N 22:58:51 33° NNE 22:58:51 33° NNE
DMSP B5D2-2 4.3 22:56:39 10° N 23:01:37 67° NW 23:01:37 67° NW
Lacrosse 4 Rocket 3.3 23:07:36 28° NNW 23:07:36 28° NNW 23:09:56 10° N
COSMOS 2406 4.1 23:14:45 39° NE 23:14:45 39° NE 23:18:23 10° NNE
Terra 2.8 23:14:06 43° NW 23:14:06 43° NW 23:17:34 10° NNW
Cosmos 2263 4.5 23:11:19 10° NNW 23:16:02 63° NW 23:16:02 63° NW
Cosmos 1140 Rocket 4.5 23:29:32 43° NNE 23:29:32 43° NNE 23:33:01 10° NNE
Cosmos 1092 Rocket 4.2 23:37:34 67° NNE 23:37:34 67° NNE 23:42:58 10° N
CZ-4C R/B 4.2 23:53:07 19° NE 23:53:07 19° NE 23:54:52 10° NE
Nadezhda 4 Rocket 4.5 23:50:27 53° WNW 23:50:27 53° WNW 23:56:18 10° N
